Tracking 31080 objects as of 20-Jul-2025
HD Live streaming from Space Station
objects crossing your sky now

CZ-6A DEB

Track CZ-6A DEB now!
10-day predictions


NORAD ID: 55224
Int'l Code: 2022-151WR
Perigee: 467.8 km
Apogee: 500.9 km
Inclination: 98.7 °
Period: 94.1 minutes
Semi major axis: 6855 km
RCS: Unknown
Launch date: November 11, 2022
Source: People's Republic of China (PRC)
Launch site: Taiyaun Space Center, China (TSC)

Note: This is SATELLITE DEBRIS
Your satellite tracking list
Your tracking list is empty




NASA's NSSDC Master Catalog

Two Line Element Set (TLE):
1 55224U 22151WR  25201.17465225  .00203057  00000-0  68596-2 0  9994
2 55224  98.6592 275.7863 0024121 155.3857 204.8537 15.29528322137853
Source of the keplerian elements: AFSPC